#timestamp,LO_Frequency,Hit,StdDev 
1662573615.5,286046998.2,N
1662573635.3,286047000.2,N
1662573655.2,286047000.4,N
1662573675.0,286047000.6,N
1662573675.9,286047000.6,N
1662573695.7,286047000.7,N
1662573715.6,286047000.8,N
1662573735.4,286047000.8,N
1662573755.3,286047000.9,N
1662573775.1,286047000.3,N
1662573776.0,286047000.3,N
1662573795.8,286046999.8,N
1662573815.7,286047002.5,N
1662573835.5,286047000.4,N
1662573855.3,286046999.9,N
1662573875.2,286047000.5,N
1662573895.0,286046999.8,N
1662573895.9,286046999.8,N
1662573915.8,286047000.2,N
1662573935.6,286047000.2,N
1662573955.4,286047000.2,N
1662573975.3,286047002.1,N
1662573995.1,286047001.9,N
1662574015.8,286047002.4,N
1662574035.7,286047002.2,N
1662574055.5,286047001.9,N
1662574075.4,286047002.6,N
1662574095.2,286047002.8,N
1662574115.0,286047004.1,Y
1662574115.9,286047004.1,P
1662574135.8,286046999.8,N
1662574155.6,286047001.0,N
1662574175.5,286046999.9,N
1662574195.3,286047000.1,N
1662574215.1,286046999.9,N
1662574235.9,286047000.7,N
1662574255.7,286047000.8,N
1662574275.5,286047000.7,N
1662574295.4,286047000.7,N
1662574315.2,286047000.4,N
1662574335.1,286047000.3,N
1662574336.0,286047000.3,N
1662574355.8,286047002.6,N
1662574375.7,286046998.9,N
1662574395.5,286046998.3,N
1662574415.3,286046998.4,N
1662574435.2,286047001.2,N
1662574455.0,286047000.7,N
1662574455.9,286047000.7,N
1662574475.7,286047001.0,N
1662574495.6,286046999.7,N
1662574515.4,286047000.8,N
1662574535.3,286047000.0,N
1662574555.1,286047000.1,N
1662574556.0,286047000.1,N
1662574575.8,286047000.8,N
1662574595.7,286047001.0,N
1662574615.5,286047000.6,N
1662574635.3,286047000.7,N
1662574655.2,286047000.9,N
1662574675.0,286047002.3,N
1662574675.9,286047002.3,N
1662574695.8,286047002.7,N
1662574715.2,286047002.5,N
1662574735.1,286047001.8,N
1662574736.0,286047001.8,N
1662574755.8,286047001.3,N
1662574775.7,286047001.7,N
1662574795.5,286047001.3,N
1662574815.3,286047004.4,Y
1662574835.2,286047001.8,P
1662574855.0,286047001.3,N
1662574855.9,286047001.3,P
1662574875.8,286047001.9,Y
1662574895.6,286046999.8,P
1662574915.4,286046998.3,N
1662574935.3,286046996.9,N
1662574955.1,286046999.6,N
1662574975.8,286046998.8,N
1662574995.7,286046998.6,N
1662575015.5,286046998.3,N
1662575035.4,286046998.1,N
1662575055.2,286047001.2,N
1662575075.0,286047000.3,N
1662575075.9,286047000.3,N
1662575095.8,286046999.0,N
1662575115.6,286046997.0,N
1662575135.4,286046999.1,N
1662575155.3,286046999.0,N
1662575175.1,286046998.4,N
1662575195.9,286047000.2,N
1662575215.7,286046998.2,N
1662575235.5,286046999.3,N
1662575255.4,286046999.4,N
1662575275.2,286046999.0,N
1662575295.0,286046998.7,N
1662575295.9,286046998.7,N
1662575315.8,286047000.8,N
1662575335.6,286046999.6,N
1662575355.4,286046996.9,N
1662575375.3,286046997.3,N
1662575395.1,286046997.2,N
1662575415.9,286046996.8,N
1662575435.7,286046997.4,N
1662575455.5,286046997.0,N
1662575475.4,286046996.7,N
1662575495.2,286046996.5,N
1662575515.1,286046999.4,N
1662575516.0,286046999.4,N
1662575535.8,286046996.9,N
1662575555.6,286046999.2,N
1662575575.5,286046999.1,N
1662575595.3,286046998.6,N
1662575615.2,286046998.5,N
1662575635.9,286046998.7,N
1662575655.7,286046998.4,N
1662575675.6,286046998.5,N
1662575695.4,286046999.9,N
1662575715.2,286047000.6,N
1662575735.1,286047002.3,N
1662575736.0,286047002.3,N
1662575755.8,286047002.7,N
1662575775.7,286047000.1,N
1662575795.5,286046999.7,N
1662575815.3,286047000.0,N
1662575835.2,286047000.2,N
1662575855.0,286047000.9,N
1662575855.9,286047000.9,N
1662575875.7,286046998.6,N
1662575895.6,286047001.2,N
1662575915.4,286046999.5,N
1662575935.3,286046999.6,N
1662575955.1,286046997.1,N
1662575956.0,286046997.1,N
1662575975.8,286046997.2,N
1662575995.7,286046997.1,N
1662576015.5,286046996.6,N
1662576035.4,286046997.9,N
1662576055.2,286046997.6,N
1662576075.0,286046997.4,N
1662576075.9,286046997.4,N
1662576095.8,286046997.8,N
1662576115.6,286046997.7,N
1662576135.5,286046994.9,Y
1662576155.3,286046996.5,P
1662576175.1,286046997.7,N
1662576195.9,286046997.8,N
1662576215.7,286046997.6,N
1662576235.5,286046997.2,Y
1662576255.4,286047000.0,P
1662576275.2,286047000.7,N
1662576295.1,286046999.0,N
1662576296.0,286046999.0,N
1662576315.8,286046998.3,N
1662576335.6,286046998.9,N
1662576355.5,286046997.0,Y
1662576375.3,286046998.7,P
1662576395.2,286046998.5,P
1662576415.9,286047001.2,P
1662576435.7,286046998.2,N
1662576455.6,286047000.9,N
1662576475.4,286046998.5,N
1662576495.2,286047001.2,N
1662576515.1,286046998.3,N
1662576516.0,286046998.3,N
1662576535.8,286046998.4,N
1662576555.7,286047001.2,N
1662576575.5,286047001.2,N
1662576595.3,286046998.2,N
1662576615.2,286046999.6,N
1662576635.0,286046996.5,N
1662576635.9,286046996.5,N
1662576655.7,286046996.9,N
1662576675.6,286046995.0,Y
1662576695.4,286046997.4,P
1662576715.3,286046996.6,P
1662576735.1,286046998.1,N
1662576736.0,286046998.1,N
1662576755.8,286046999.0,N
1662576775.7,286046999.6,N
1662576795.5,286046999.6,N
1662576815.4,286046996.9,Y
1662576835.2,286047000.9,P
1662576855.0,286046998.3,N
1662576855.9,286046998.3,N
1662576875.8,286047001.2,N
1662576895.6,286046998.7,N
1662576915.4,286046998.9,N
1662576935.3,286046999.2,N
1662576955.1,286046999.1,N
1662576975.9,286046999.4,N
1662576995.7,286046996.5,Y
1662577015.5,286046998.7,P
1662577035.4,286046998.7,P
1662577055.2,286047001.2,P
1662577075.0,286046998.7,N
1662577075.9,286046998.7,N
1662577095.8,286046998.4,N
1662577115.6,286046998.8,N
1662577135.5,286046998.6,N
1662577155.3,286046999.3,N
1662577175.1,286046999.1,N
1662577195.9,286046998.8,N
